Home > Weather > Dieppe > Past weeks

Flag for Canada Weather for the Past 2 Weeks in Dieppe, New Brunswick, Canada

Now
50 °F

Passing clouds.


Feels Like: 47 °F
Forecast: 26 / 58 °F
Wind: 8 mph from North

Location: Moncton

Current Time: Apr 30, 2016 at 1:03:49 PM

Latest Report: Apr 30, 2016 at 12:00 PM


Visibility: 15 mi

Pressure: 30.20 "Hg

Humidity: 25%

Dew Point: 16 °F

Location of DieppeLocation

Historic Weather in Dieppe — Graph

°F

Dieppe Temperature Yesterday

Maximum temperature yesterday: 50 °F (at 3:00 PM)
Minimum temperature yesterday: 23 °F (at 5:00 AM)
Average temperature yesterday: 37 °F

High & Low Weather Summary for the Past Weeks

 TemperatureHumidityPressure
High70 °F (Apr 21, 3:00 PM)100% (Apr 17, 2:50 AM)30.58 "Hg (Apr 17, 2:50 AM)
Low23 °F (Apr 26, 4:00 AM)17% (Apr 24, 6:00 PM)29.69 "Hg (Apr 21, 5:00 PM)
Average39 °F58%30.03 "Hg
* Reported Apr 15 11:00 AM — Apr 30 11:00 AM, Dieppe, Weather by CustomWeather, © 2016

Note: Actual official high and low records may vary slightly from our data, if they occured in-between our weather recording intervals... More about our weather records

Advertising

Dieppe Weather History for the Previous 24 Hours

Scroll right to see more
 ConditionsComfort  
Time TempWeatherWind HumidityBarometerVisibility
11:00 AM
Sat, Apr 30
46 °FPassing clouds.6 mph29%30.20 "Hg15 mi
10:00 AM43 °FPassing clouds.2 mph34%30.20 "Hg15 mi
9:00 AM39 °FPassing clouds.5 mph48%30.20 "Hg15 mi
8:00 AM34 °FPassing clouds.9 mph60%30.20 "Hg15 mi
7:00 AM27 °FPassing clouds.10 mph80%30.19 "Hg15 mi
6:00 AM27 °FClear.6 mph74%30.18 "Hg15 mi
5:00 AM27 °FClear.8 mph74%30.16 "Hg15 mi
4:00 AM28 °FClear.8 mph69%30.16 "Hg15 mi
3:00 AM28 °FClear.5 mph74%30.13 "Hg15 mi
2:00 AM32 °FClear.8 mph60%30.14 "Hg15 mi
1:00 AM32 °FClear.8 mph60%30.14 "Hg15 mi
12:00 AM36 °FClear.6 mph48%30.14 "Hg15 mi
11:00 PM
Fri, Apr 29
37 °FClear.10 mph45%30.12 "Hg15 mi
10:00 PM41 °FClear.13 mph39%30.11 "Hg15 mi
9:00 PM43 °FPassing clouds.8 mph26%30.08 "Hg15 mi
8:00 PM48 °FSunny.12 mph20%30.05 "Hg15 mi
7:00 PM50 °FSunny.13 mph19%30.03 "Hg15 mi
6:00 PM50 °FPassing clouds.13 mph19%30.03 "Hg15 mi
5:00 PM50 °FPassing clouds.14 mph19%30.04 "Hg15 mi
4:00 PM50 °FPassing clouds.16 mph20%30.05 "Hg15 mi
3:00 PM50 °FPassing clouds.16 mph20%30.07 "Hg15 mi
2:00 PM46 °FPassing clouds.14 mph23%30.09 "Hg15 mi
1:00 PM46 °FPassing clouds.16 mph25%30.12 "Hg15 mi
Weather by CustomWeather, © 2016

See weather overviewHow to use our weather pages